Regional Weather Roundup
Issued by NWS Newport/Morehead, NC

Current Version | Previous Version | Graphics & Text | Print | Product List | Glossary Off
Versions: 1 2 3 4 5 6 7 8 9 10 11 12 13 14 15 16 17 18 19 20 21 22 23 24 25 26 27 28 29 30 31 32 33 34 35 36 37 38 39 40 41 42 43 44 45 46 47 48 49 50

000
ASUS42 KMHX 241813
RWRMHX
WEATHER ROUNDUP FOR EASTERN NORTH CAROLINA
NATIONAL WEATHER SERVICE NEWPORT/MOREHEAD CITY NC
200 PM EDT TUE MAY 24 2016

NOTE: "FAIR" INDICATES FEW OR NO CLOUDS BELOW 12,000 FEET
WITH NO SIGNIFICANT WEATHER AND/OR OBSTRUCTIONS TO VISIBILITY

NCZ015>017-031-032-045>047-102-103-241900-
NORTH COAST

CITY           SKY/WX    TMP DP  RH WIND       PRES   REMARKS
EDENTON        SUNNY     80  61  51 W8        30.06F
ELIZABETH CITY SUNNY     79  57  46 SW12G20   30.04F
KITTY HAWK     CLEAR     78  55  44 W13G20    30.04F
MANTEO         SUNNY     76  58  53 NW7G16    30.06F

$$

NCZ045>047-081-094-103-104-241900-
CENTRAL COAST

CITY           SKY/WX    TMP DP  RH WIND       PRES   REMARKS
FRISCO         SUNNY     74  58  57 SW12      30.10S

$$

NCZ095-097-098-100-101-241900-
SOUTHERN COAST

CITY           SKY/WX    TMP DP  RH WIND       PRES   REMARKS
BEAUFORT       SUNNY     73  59  61 SW14      30.11F
CEDAR ISLAND   NOT AVBL
JACKSONVILLE   SUNNY     79  54  41 W10       30.10F
PINEY ISLAND   CLEAR    N/A N/A N/A W13G21    30.09F
WILMINGTON     SUNNY     79  52  38 NW5       30.12F


$$

NCZ011>013-027>030-043-044-078>080-089-090>093-098-241900-
COASTAL PLAIN

CITY           SKY/WX    TMP DP  RH WIND       PRES   REMARKS
AHOSKIE        SUNNY     78  56  46 CALM      30.06F
CLINTON        SUNNY     80  57  45 NW8       30.12F
ELIZABETHTOWN  SUNNY     80  49  33 W5        30.12F
GOLDSBORO      SUNNY     81  54  39 W13G20    30.08F
GREENVILLE     SUNNY     81  55  41 W8        30.10S
HAVELOCK       MOSUNNY   80  56  43 W10G18    30.10F
KENANSVILLE    SUNNY     79  52  39 W5        30.12F
KINSTON        SUNNY     81  52  36 W9        30.10F
NEW BERN       SUNNY     79  56  45 W12       30.10F
RICHLANDS      SUNNY     80  57  45 SW9G16    30.11F
ROCKY MOUNT    SUNNY     80  54  40 VRB3      30.08F
WASHINGTON     SUNNY     79  56  45 NW6       30.08F
WHITEVILLE     SUNNY     79  53  39 W5        30.13S

$$

AMZ130-135-150-152-154-156-158-170-250-252-270-ANZ085-086-088-633-658-670-241900-
MARINE OBSERVATIONS

STATION/POSITION TIME  TEMP    WIND        PRES    WAVE   SWELL
                       AIR SEA DIR/SP/G            HT/PER HT/PER
                 (UTC) (F)     (DEG/KT/KT) (MB)    (FT/S) (FT/S)
CHESAPEAKE LIGHT 1800   71     270/ 14/ 14 1017.5
64 E VA BEACH    1750   60 57  240/ 10/ 12 1017.1    3/10   3/10
DUCK             1700   71 61  240/ 11/ 14 1017.1
2 E DUCK         1711      63                N/A     3/11   2/11
OREGON INLET     1700   71 64  230/  6/  7 1018.1
13E OREGON INLT  1700      63                N/A     3/11   3/11
HATTERAS CG      1700   72 66  230/ 10/ 14 1018.6
DIAMOND BUOY     1750   70 78  250/ 14/ 17 1019.2    4/11   3/11
CAPE LOOKOUT     1800   71     230/ 12/ 15 1019.7
BEAUFORT LAB     1700   72 67  220/  8/ 14 1019.0
30 SE NEW RVR IN 1725      73                N/A     2/ 9
27 SE WRIGHTSVLE 1708   71 73  230/  6/  8 1020.5
5 SE WRIGHTSVLE  NOT AVBL
225 S CAPE HAT   1750   73 78  310/ 10/ 14 1020.8    5/10   5/10
41 SE CHARLESTON NOT AVBL

$$



USA.gov is the U.S. government's official web portal to all federal, state and local government web resources and services.